Stations météo

réclame
Mon MeteoGroup
Bergamo/Orio al Serio, Italie (16076): Température de l'air & dewpoint: 18.09.2018 11:00:00 - 24.09.2018 11:00:00 (CEST)Bergamo/Orio al Serio, Italie (16076): Vitesse du vent: 18.09.2018 11:00:00 - 24.09.2018 11:00:00 (CEST)Bergamo/Orio al Serio, Italie (16076): Direction du vent: 18.09.2018 11:00:00 - 24.09.2018 11:00:00 (CEST)Bergamo/Orio al Serio, Italie (16076): reduced air pressure: 18.09.2018 11:00:00 - 24.09.2018 11:00:00 (CEST)Bergamo/Orio al Serio, Italie (16076): visibility: 18.09.2018 11:00:00 - 24.09.2018 11:00:00 (CEST)Bergamo/Orio al Serio, Italie (16076): Quantités de précipitations: 18.09.2018 11:00:00 - 24.09.2018 11:00:00 (CEST)
Date & Time tt [°C] td [°C] ff [km/h] ff [knt] dd ppp [hPa] vv [km] rr [mm]
24.09.2018 11:00:00 24,8 4,3 9 5 NNW 1016,6 10 0,0
24.09.2018 10:00:00 24,0 7,0 13 7 N - 10 -
24.09.2018 09:00:00 22,0 9,0 11 6 N - 10 -
24.09.2018 08:00:00 18,1 15,0 5 3 W 1012,5 10 -
24.09.2018 07:00:00 19,0 16,0 2 1 - - 10 -
24.09.2018 06:00:00 19,0 17,0 11 6 W - 10 -
24.09.2018 05:00:00 20,1 17,1 18 10 W 1011,0 10 0,0
24.09.2018 04:00:00 21,0 17,0 13 7 W - 10 -
24.09.2018 03:00:00 22,0 17,0 15 8 WNW - 10 -
24.09.2018 02:00:00 21,2 16,6 18 10 W 1011,5 10 -
24.09.2018 01:00:00 23,0 16,0 15 8 WNW - 10 -
24.09.2018 00:00:00 22,0 17,0 21 11 W - 10 -
23.09.2018 23:00:00 22,5 17,3 15 8 W 1014,0 10 0,0
23.09.2018 22:00:00 24,0 17,0 11 6 WSW - 10 -
23.09.2018 21:00:00 23,0 18,0 4 2 N - 10 -
23.09.2018 20:00:00 23,1 17,0 4 2 - 1014,7 10 -
23.09.2018 19:00:00 26,0 16,0 9 5 SSW - 10 -
23.09.2018 18:00:00 27,0 17,0 9 5 S - 10 -
23.09.2018 17:00:00 27,2 16,7 8 4 SSW 1015,9 10 0,0
23.09.2018 16:00:00 27,0 17,0 8 4 - - 10 -
23.09.2018 15:00:00 26,0 17,0 8 4 - - 10 -
23.09.2018 14:00:00 25,2 18,2 4 2 - 1018,1 10 -
23.09.2018 13:00:00 24,0 17,0 8 4 SSW - 9 -
23.09.2018 12:00:00 22,0 17,0 8 4 SSW - 9 -
23.09.2018 11:00:00 21,1 16,3 5 3 SSW 1019,6 8 0,0
23.09.2018 10:00:00 20,0 16,0 4 2 - - 8 -
23.09.2018 09:00:00 19,0 15,0 4 2 - - 8 -
23.09.2018 08:00:00 17,2 15,8 2 1 - 1018,9 7 -
23.09.2018 07:00:00 17,0 16,0 2 1 - - 8 -
23.09.2018 06:00:00 18,0 15,0 5 3 SSW - 8 -
23.09.2018 05:00:00 19,1 15,9 2 1 - 1019,0 8 0,0
23.09.2018 04:00:00 19,0 17,0 0 0 N - 8 -
23.09.2018 03:00:00 19,0 17,0 5 3 SE - 8 -
23.09.2018 02:00:00 19,6 17,0 4 2 - 1019,4 7 -
23.09.2018 01:00:00 21,0 18,0 8 4 SE - 7 -
23.09.2018 00:00:00 22,0 19,0 11 6 SE - 10 -
22.09.2018 23:00:00 21,6 18,2 8 4 N 1018,7 10 0,0
22.09.2018 22:00:00 22,0 19,0 8 4 N - 10 -
22.09.2018 21:00:00 23,0 19,0 8 4 N - 10 -
22.09.2018 20:00:00 23,9 18,6 4 2 - 1017,2 10 -
22.09.2018 19:00:00 26,0 18,0 9 5 S - 10 -
22.09.2018 18:00:00 27,0 18,0 4 2 - - 10 -
22.09.2018 17:00:00 27,0 17,1 5 3 - 1016,1 10 0,0
22.09.2018 16:00:00 27,0 17,0 11 6 WSW - 10 -
22.09.2018 15:00:00 27,0 17,0 5 3 W - 10 -
22.09.2018 14:00:00 26,5 17,3 9 5 W 1016,9 10 -
22.09.2018 13:00:00 26,0 18,0 5 3 - - 10 -
22.09.2018 12:00:00 25,0 18,0 13 7 W - 10 -
22.09.2018 11:00:00 24,3 16,4 4 2 - 1017,0 10 0,0
22.09.2018 10:00:00 22,0 16,0 5 3 N - 10 -
22.09.2018 09:00:00 20,0 16,0 4 2 - - 10 -
22.09.2018 08:00:00 18,4 15,4 8 4 N 1015,6 10 -
22.09.2018 07:00:00 18,0 15,0 5 3 N - 10 -
22.09.2018 06:00:00 19,0 15,0 8 4 N - 10 -
22.09.2018 05:00:00 18,3 15,4 5 3 NNE 1014,5 - 0,0
22.09.2018 04:00:00 20,0 16,0 5 3 NNW - 10 -
22.09.2018 03:00:00 21,0 16,0 5 3 NNW - 10 -
22.09.2018 02:00:00 20,8 15,6 2 1 - 1014,9 10 -
22.09.2018 01:00:00 21,0 16,0 11 6 N - 10 -
22.09.2018 00:00:00 21,0 17,0 9 5 N - 10 -
21.09.2018 23:00:00 21,1 16,5 8 4 N 1015,6 10 0,0
21.09.2018 22:00:00 22,0 17,0 9 5 N - 10 -
21.09.2018 21:00:00 23,0 17,0 8 4 N - 10 -
21.09.2018 20:00:00 23,5 16,6 5 3 N 1014,7 10 -
21.09.2018 19:00:00 27,0 15,0 8 4 SSW - 10 -
21.09.2018 18:00:00 27,0 15,0 9 5 W - 10 -
21.09.2018 17:00:00 28,7 15,2 9 5 WSW 1015,0 10 0,0
21.09.2018 16:00:00 28,0 15,0 8 4 W - 10 -
21.09.2018 15:00:00 28,0 16,0 13 7 SW - 10 -
21.09.2018 14:00:00 27,2 16,7 8 4 SSW 1016,2 8 -
21.09.2018 13:00:00 27,0 17,0 9 5 SW - 9 -
21.09.2018 12:00:00 25,0 18,0 5 3 - - 10 -
21.09.2018 11:00:00 24,1 16,6 5 3 SSE 1017,4 10 0,0
21.09.2018 10:00:00 22,0 17,0 2 1 - - 10 -
21.09.2018 09:00:00 20,0 16,0 4 2 - - 9 -
21.09.2018 08:00:00 18,5 15,4 9 5 N 1017,4 7 -
21.09.2018 07:00:00 19,0 15,0 8 4 N - 10 -
21.09.2018 06:00:00 18,0 16,0 8 4 NNE - 10 -
21.09.2018 05:00:00 18,8 15,8 8 4 N 1017,4 10 0,0
21.09.2018 04:00:00 19,0 16,0 9 5 N - 10 -
21.09.2018 03:00:00 19,0 16,0 8 4 NNE - 10 -
21.09.2018 02:00:00 19,4 16,4 9 5 N 1018,4 10 -
21.09.2018 01:00:00 20,0 17,0 8 4 N - 10 -
21.09.2018 00:00:00 20,0 17,0 9 5 N - 10 -
20.09.2018 23:00:00 20,3 17,1 9 5 N 1018,7 10 0,0
20.09.2018 22:00:00 21,0 18,0 11 6 N - 10 -
20.09.2018 21:00:00 22,0 18,0 9 5 N - 8 -
20.09.2018 20:00:00 23,4 17,2 5 3 SSW 1018,5 7 -
20.09.2018 19:00:00 27,0 17,0 9 5 S - 8 -
20.09.2018 18:00:00 27,0 16,0 9 5 SSE - 10 -
20.09.2018 17:00:00 28,0 16,0 9 5 S - 10 -
20.09.2018 16:00:00 29,0 17,0 8 4 - - 10 -
20.09.2018 15:00:00 28,0 18,0 8 4 W - 10 -
20.09.2018 14:00:00 27,7 17,5 5 3 WNW 1020,0 10 -
20.09.2018 13:00:00 27,0 17,0 5 3 - - 10 -
20.09.2018 12:00:00 25,0 17,0 8 4 W - 10 -
20.09.2018 11:00:00 24,8 16,9 2 1 - 1021,3 10 0,0
20.09.2018 10:00:00 23,0 17,0 4 2 - - 10 -
20.09.2018 09:00:00 21,0 17,0 8 4 NNE - 8 -
20.09.2018 08:00:00 19,5 15,9 13 7 N 1020,6 8 -
20.09.2018 07:00:00 19,0 16,0 8 4 N - 10 -
20.09.2018 06:00:00 19,0 16,0 11 6 N - 10 -
20.09.2018 05:00:00 19,0 16,2 8 4 NNE 1020,4 10 -
20.09.2018 04:00:00 19,0 16,0 4 2 - - 10 -
20.09.2018 03:00:00 20,0 17,0 11 6 NNE - 10 -
20.09.2018 02:00:00 20,0 16,6 9 5 NNE 1020,6 10 -
20.09.2018 01:00:00 20,0 17,0 9 5 NNE - 10 -
20.09.2018 00:00:00 20,0 17,0 9 5 NNE - 10 -
19.09.2018 23:00:00 20,8 17,3 13 7 NNE 1020,7 10 -
19.09.2018 22:00:00 22,0 18,0 8 4 N - 10 -
19.09.2018 21:00:00 22,0 18,0 5 3 N - 8 -
19.09.2018 20:00:00 23,5 16,5 4 2 - 1019,2 5 -
19.09.2018 19:00:00 26,0 16,0 5 3 SSE - 9 -
19.09.2018 18:00:00 27,0 17,0 8 4 SSE - 10 -
19.09.2018 17:00:00 26,9 16,2 8 4 SW 1018,4 9 -
19.09.2018 16:00:00 27,0 17,0 8 4 S - 10 -
19.09.2018 15:00:00 27,0 17,0 8 4 SSE - 9 -
19.09.2018 14:00:00 26,3 17,4 8 4 - 1019,5 9 -
19.09.2018 13:00:00 26,0 18,0 4 2 - - 9 -
19.09.2018 12:00:00 25,0 17,0 5 3 - - 9 -
19.09.2018 11:00:00 23,8 16,5 0 0 N 1020,7 9 -
19.09.2018 10:00:00 22,0 17,0 2 1 - - 9 -
19.09.2018 09:00:00 19,0 16,0 5 3 NNE - 9 -
19.09.2018 08:00:00 18,3 15,0 5 3 N 1020,6 9 -
19.09.2018 07:00:00 18,0 15,0 9 5 NNE - 10 -
19.09.2018 06:00:00 18,0 15,0 8 4 NNE - 10 -
19.09.2018 05:00:00 17,7 14,9 5 3 ENE 1019,7 10 -
19.09.2018 04:00:00 19,0 15,0 9 5 N - 10 -
19.09.2018 03:00:00 19,0 16,0 9 5 N - 10 -
19.09.2018 02:00:00 19,8 15,9 5 3 ENE 1020,3 10 -
19.09.2018 01:00:00 19,0 16,0 11 6 NNE - 10 -
19.09.2018 00:00:00 20,0 16,0 13 7 N - 10 -
18.09.2018 23:00:00 20,4 16,0 11 6 NNE 1019,9 10 -
18.09.2018 22:00:00 21,0 17,0 9 5 NNE - 10 -
18.09.2018 21:00:00 22,0 17,0 9 5 NNE - 10 -
18.09.2018 20:00:00 22,7 17,2 8 4 NNE 1018,6 10 -
18.09.2018 19:00:00 25,0 16,0 5 3 S - 10 -
18.09.2018 18:00:00 26,0 16,0 8 4 S - 10 -
18.09.2018 17:00:00 26,7 15,8 4 2 - 1018,1 10 -
18.09.2018 16:00:00 26,0 16,0 8 4 N - 10 -
18.09.2018 15:00:00 25,0 16,0 15 8 N - 10 -
18.09.2018 14:00:00 23,2 18,4 11 6 W 1019,9 8 -
18.09.2018 13:00:00 23,0 18,0 15 8 W - 8 -
18.09.2018 12:00:00 24,0 17,0 5 3 WNW - 8 -
18.09.2018 11:00:00 22,4 17,9 9 5 WNW 1020,9 7 -

tt = Température de l'air
td = dewpoint
ff = Vitesse du vent
dd = Direction du vent
ppp = reduced air pressure
vv = visibility
rr = Quantités de précipitations

stations d'obs. à proximité